QPF
0.06 0.07 0.07 0.09 0.11 0.06 0.04 0.06 0.05 0.05 0.05 0.02 0.03 0.02 0.02 0.02 0.01 0.01 0.01 0.01 0.01 0.01 0.01 0.02 0.02 0.03 0.02 0.01 0.01 0.01 0.01 0.01 0.01 0.01 0.01 0.01 0.01 0.01 0.00 0.01 0.01 0.00 0.00
0.08 0.09 0.06 0.06 0.06 0.03 0.03 0.03 0.04 0.05 0.05 0.03 0.03 0.02 0.01 0.01 0.02 0.02 0.02 0.02 0.01 0.00 0.01 0.01 0.01 0.02 0.02 0.01 0.01 0.01 0.01 0.01 0.01 0.01 0.00 0.00 0.01 0.01 0.01 0.01 0.01 0.01 0.00
0.08 0.10 0.09 0.06 0.04 0.03 0.04 0.03 0.03 0.04 0.06 0.04 0.04 0.02 0.01 0.02 0.01 0.02 0.02 0.02 0.01 0.01 0.00 0.01 0.01 0.01 0.01 0.01 0.01 0.01 0.01 0.01 0.01 0.01 0.00 0.00 0.01 0.01 0.01 0.01 0.01 0.01 0.01
0.06 0.09 0.08 0.06 0.05 0.04 0.03 0.04 0.05 0.05 0.07 0.06 0.07 0.04 0.03 0.02 0.02 0.01 0.02 0.02 0.03 0.02 0.01 0.00 0.00 0.01 0.02 0.01 0.01 0.01 0.02 0.01 0.02 0.01 0.01 0.01 0.01 0.01 0.01 0.01 0.01 0.01 0.01
0.05 0.07 0.08 0.09 0.06 0.06 0.04 0.04 0.07 0.08 0.09 0.08 0.04 0.04 0.02 0.02 0.02 0.01 0.01 0.02 0.03 0.03 0.01 0.02 0.00 0.01 0.02 0.02 0.03 0.02 0.02 0.02 0.02 0.02 0.02 0.02 0.02 0.02 0.01 0.01 0.01 0.01 0.01
0.05 0.07 0.08 0.07 0.05 0.07 0.08 0.08 0.09 0.09 0.10 0.09 0.06 0.05 0.02 0.02 0.02 0.02 0.02 0.01 0.01 0.01 0.01 0.02 0.03 0.02 0.02 0.01 0.03 0.04 0.03 0.04 0.04 0.04 0.04 0.03 0.03 0.02 0.02 0.02 0.02 0.02 0.01
0.08 0.09 0.08 0.09 0.06 0.08 0.08 0.07 0.09 0.10 0.09 0.08 0.09 0.08 0.05 0.02 0.03 0.03 0.02 0.02 0.02 0.02 0.02 0.04 0.05 0.06 0.04 0.03 0.03 0.04 0.04 0.05 0.07 0.07 0.06 0.05 0.05 0.04 0.03 0.02 0.02 0.02 0.02
0.07 0.07 0.10 0.08 0.07 0.09 0.08 0.08 0.11 0.12 0.10 0.08 0.12 0.15 0.14 0.12 0.08 0.04 0.03 0.04 0.04 0.05 0.04 0.05 0.07 0.11 0.11 0.11 0.08 0.05 0.04 0.06 0.09 0.10 0.08 0.06 0.07 0.06 0.05 0.03 0.03 0.03 0.02
0.04 0.05 0.06 0.07 0.08 0.06 0.10 0.10 0.12 0.15 0.16 0.11 0.09 0.15 0.18 0.19 0.16 0.10 0.07 0.06 0.06 0.07 0.07 0.08 0.07 0.10 0.12 0.19 0.17 0.09 0.04 0.04 0.07 0.11 0.09 0.08 0.07 0.06 0.05 0.06 0.06 0.05 0.03
0.06 0.05 0.04 0.06 0.07 0.06 0.11 0.07 0.11 0.13 0.17 0.14 0.12 0.10 0.13 0.15 0.17 0.16 0.13 0.11 0.13 0.13 0.09 0.08 0.06 0.09 0.10 0.14 0.13 0.10 0.07 0.06 0.06 0.08 0.08 0.07 0.06 0.06 0.06 0.07 0.07 0.08 0.07
0.09 0.06 0.07 0.10 0.10 0.09 0.09 0.09 0.12 0.10 0.11 0.11 0.13 0.12 0.16 0.17 0.15 0.15 0.17 0.17 0.14 0.10 0.07 0.08 0.06 0.06 0.10 0.13 0.13 0.12 0.11 0.08 0.07 0.07 0.07 0.06 0.07 0.08 0.08 0.09 0.10 0.11 0.10
0.10 0.10 0.11 0.14 0.13 0.11 0.09 0.10 0.11 0.11 0.13 0.15 0.14 0.11 0.12 0.13 0.14 0.15 0.14 0.15 0.14 0.11 0.09 0.09 0.08 0.09 0.10 0.10 0.11 0.10 0.09 0.08 0.06 0.06 0.05 0.05 0.05 0.06 0.06 0.06 0.05 0.06 0.07
0.11 0.11 0.11 0.14 0.13 0.11 0.11 0.14 0.14 0.14 0.15 0.14 0.12 0.11 0.10 0.10 0.10 0.11 0.11 0.11 0.12 0.12 0.14 0.15 0.10 0.10 0.09 0.10 0.10 0.08 0.05 0.04 0.04 0.03 0.03 0.03 0.03 0.03 0.03 0.03 0.04 0.04 0.04
0.07 0.08 0.09 0.11 0.10 0.10 0.09 0.13 0.11 0.12 0.12 0.11 0.09 0.12 0.11 0.10 0.10 0.10 0.11 0.12 0.14 0.15 0.16 0.14 0.10 0.08 0.08 0.08 0.08 0.08 0.06 0.05 0.04 0.03 0.02 0.02 0.02 0.02 0.02 0.02 0.03 0.03 0.04
0.07 0.07 0.09 0.11 0.13 0.13 0.11 0.12 0.12 0.11 0.12 0.09 0.09 0.10 0.09 0.09 0.09 0.08 0.10 0.12 0.13 0.14 0.12 0.08 0.07 0.08 0.08 0.07 0.08 0.07 0.07 0.06 0.05 0.04 0.04 0.04 0.04 0.04 0.04 0.04 0.04 0.04 0.04
0.08 0.08 0.09 0.11 0.11 0.11 0.11 0.13 0.11 0.10 0.10 0.09 0.10 0.09 0.08 0.07 0.07 0.07 0.08 0.08 0.10 0.13 0.11 0.08 0.08 0.08 0.08 0.08 0.09 0.07 0.06 0.06 0.05 0.05 0.04 0.04 0.04 0.04 0.04 0.03 0.03 0.02 0.02
0.07 0.07 0.08 0.09 0.08 0.08 0.10 0.11 0.09 0.09 0.08 0.09 0.08 0.07 0.07 0.08 0.08 0.07 0.07 0.08 0.10 0.13 0.11 0.07 0.07 0.08 0.08 0.07 0.07 0.06 0.05 0.05 0.06 0.07 0.06 0.05 0.04 0.02 0.02 0.01 0.01 0.01 0.01
0.06 0.06 0.06 0.06 0.06 0.08 0.09 0.08 0.05 0.05 0.06 0.06 0.05 0.05 0.05 0.06 0.06 0.06 0.07 0.07 0.09 0.12 0.11 0.07 0.07 0.07 0.07 0.06 0.06 0.06 0.06 0.07 0.07 0.08 0.05 0.03 0.02 0.02 0.01 0.01 0.02 0.02 0.01
0.06 0.06 0.09 0.08 0.08 0.08 0.08 0.07 0.05 0.05 0.06 0.06 0.06 0.04 0.04 0.04 0.05 0.05 0.06 0.07 0.08 0.09 0.10 0.09 0.08 0.09 0.08 0.07 0.08 0.08 0.06 0.06 0.04 0.04 0.04 0.02 0.02 0.01 0.01 0.01 0.01 0.01 0.01
0.06 0.06 0.07 0.06 0.07 0.08 0.07 0.07 0.07 0.07 0.07 0.07 0.06 0.05 0.06 0.06 0.06 0.06 0.06 0.07 0.09 0.10 0.11 0.10 0.09 0.08 0.07 0.07 0.07 0.06 0.06 0.05 0.04 0.03 0.03 0.02 0.02 0.01 0.01 0.01 0.01 0.01 0.01
0.05 0.06 0.05 0.05 0.05 0.07 0.07 0.08 0.08 0.09 0.09 0.08 0.07 0.06 0.07 0.07 0.07 0.07 0.07 0.08 0.10 0.10 0.10 0.09 0.08 0.08 0.08 0.08 0.07 0.05 0.06 0.05 0.05 0.04 0.04 0.04 0.02 0.01 0.01 0.01 0.01 0.01 0.01
0.04 0.04 0.04 0.05 0.06 0.07 0.10 0.11 0.13 0.14 0.14 0.11 0.08 0.06 0.07 0.07 0.07 0.07 0.06 0.06 0.06 0.08 0.09 0.10 0.10 0.10 0.08 0.07 0.08 0.07 0.06 0.05 0.05 0.04 0.04 0.03 0.02 0.02 0.01 0.01 0.01 0.01 0.01
0.05 0.04 0.04 0.04 0.04 0.04 0.05 0.07 0.10 0.10 0.09 0.08 0.08 0.08 0.07 0.06 0.07 0.06 0.06 0.07 0.06 0.07 0.08 0.09 0.11 0.11 0.10 0.09 0.09 0.07 0.06 0.06 0.05 0.02 0.02 0.02 0.02 0.02 0.02 0.02 0.02 0.03 0.03
0.06 0.05 0.04 0.04 0.03 0.02 0.02 0.02 0.03 0.03 0.04 0.05 0.05 0.05 0.04 0.04 0.05 0.06 0.06 0.06 0.06 0.08 0.10 0.10 0.11 0.12 0.12 0.10 0.08 0.06 0.05 0.05 0.04 0.02 0.02 0.03 0.02 0.03 0.02 0.02 0.02 0.03 0.03
0.07 0.06 0.05 0.04 0.03 0.03 0.04 0.03 0.01 0.01 0.02 0.03 0.04 0.03 0.03 0.03 0.04 0.04 0.03 0.04 0.06 0.08 0.09 0.10 0.11 0.11 0.11 0.09 0.07 0.06 0.05 0.05 0.05 0.04 0.04 0.04 0.03 0.03 0.02 0.02 0.02 0.04 0.04
0.10 0.08 0.06 0.04 0.03 0.03 0.02 0.01 0.01 0.01 0.02 0.02 0.02 0.02 0.03 0.03 0.04 0.04 0.04 0.05 0.06 0.08 0.08 0.07 0.06 0.07 0.07 0.07 0.08 0.08 0.09 0.10 0.10 0.09 0.08 0.07 0.07 0.07 0.06 0.04 0.04 0.04 0.05
MSLP
1015.69 1015.77 1015.83 1015.89 1015.99 1016.13 1016.31 1016.50 1016.67 1016.78 1016.82 1016.77 1016.66 1016.54 1016.45 1016.46 1016.59 1016.86 1017.24 1017.70 1018.18 1018.62 1018.98 1019.24 1019.38 1019.45 1019.46 1019.46 1019.49 1019.56 1019.67 1019.82 1020.00 1020.19 1020.38 1020.57 1020.76 1020.94 1021.12 1021.31 1021.48 1021.64 1021.78
1015.64 1015.74 1015.81 1015.89 1015.98 1016.10 1016.26 1016.42 1016.57 1016.67 1016.71 1016.68 1016.59 1016.49 1016.41 1016.39 1016.47 1016.67 1016.96 1017.34 1017.75 1018.15 1018.51 1018.81 1019.04 1019.20 1019.32 1019.41 1019.49 1019.58 1019.68 1019.78 1019.90 1020.02 1020.16 1020.31 1020.47 1020.65 1020.84 1021.03 1021.22 1021.39 1021.54
1015.66 1015.77 1015.85 1015.93 1016.03 1016.14 1016.28 1016.42 1016.55 1016.65 1016.69 1016.67 1016.61 1016.51 1016.41 1016.36 1016.36 1016.46 1016.64 1016.89 1017.20 1017.54 1017.89 1018.22 1018.52 1018.79 1019.02 1019.22 1019.38 1019.51 1019.61 1019.69 1019.75 1019.82 1019.89 1019.99 1020.13 1020.29 1020.48 1020.68 1020.88 1021.05 1021.20
1015.72 1015.83 1015.92 1016.02 1016.12 1016.24 1016.37 1016.50 1016.63 1016.72 1016.77 1016.76 1016.71 1016.61 1016.49 1016.38 1016.30 1016.28 1016.32 1016.43 1016.61 1016.86 1017.15 1017.48 1017.84 1018.19 1018.52 1018.81 1019.06 1019.24 1019.37 1019.45 1019.49 1019.51 1019.55 1019.61 1019.72 1019.87 1020.05 1020.25 1020.45 1020.63 1020.77
1015.75 1015.87 1015.98 1016.09 1016.22 1016.36 1016.50 1016.64 1016.77 1016.86 1016.92 1016.93 1016.88 1016.78 1016.64 1016.48 1016.31 1016.17 1016.06 1016.02 1016.06 1016.18 1016.39 1016.68 1017.03 1017.42 1017.81 1018.18 1018.50 1018.74 1018.91 1019.00 1019.04 1019.05 1019.08 1019.13 1019.22 1019.37 1019.55 1019.75 1019.95 1020.13 1020.27
1015.72 1015.83 1015.96 1016.11 1016.27 1016.44 1016.61 1016.77 1016.91 1017.03 1017.09 1017.11 1017.08 1016.98 1016.83 1016.63 1016.40 1016.16 1015.93 1015.75 1015.63 1015.61 1015.70 1015.90 1016.19 1016.56 1016.96 1017.36 1017.71 1018.00 1018.20 1018.33 1018.39 1018.43 1018.47 1018.53 1018.64 1018.79 1018.98 1019.19 1019.39 1019.56 1019.71
1015.59 1015.70 1015.85 1016.03 1016.24 1016.45 1016.66 1016.85 1017.01 1017.13 1017.22 1017.25 1017.24 1017.16 1017.02 1016.82 1016.56 1016.25 1015.93 1015.63 1015.38 1015.22 1015.16 1015.23 1015.41 1015.70 1016.04 1016.41 1016.76 1017.06 1017.29 1017.46 1017.57 1017.65 1017.73 1017.84 1017.98 1018.16 1018.36 1018.57 1018.77 1018.95 1019.09
1015.36 1015.46 1015.63 1015.85 1016.10 1016.35 1016.59 1016.81 1016.99 1017.12 1017.22 1017.28 1017.29 1017.25 1017.15 1016.97 1016.73 1016.41 1016.05 1015.67 1015.32 1015.02 1014.81 1014.72 1014.76 1014.92 1015.16 1015.45 1015.75 1016.03 1016.28 1016.48 1016.64 1016.78 1016.93 1017.09 1017.27 1017.48 1017.71 1017.93 1018.13 1018.30 1018.44
1015.08 1015.17 1015.35 1015.59 1015.86 1016.15 1016.41 1016.64 1016.82 1016.96 1017.07 1017.14 1017.19 1017.19 1017.15 1017.03 1016.84 1016.57 1016.22 1015.82 1015.40 1015.00 1014.66 1014.42 1014.29 1014.29 1014.39 1014.57 1014.79 1015.04 1015.28 1015.50 1015.71 1015.91 1016.11 1016.33 1016.57 1016.81 1017.06 1017.28 1017.48 1017.64 1017.77
1014.83 1014.89 1015.06 1015.29 1015.58 1015.86 1016.13 1016.35 1016.52 1016.65 1016.75 1016.83 1016.91 1016.96 1016.99 1016.96 1016.85 1016.66 1016.36 1015.98 1015.54 1015.08 1014.65 1014.28 1014.01 1013.85 1013.80 1013.86 1013.99 1014.18 1014.40 1014.64 1014.88 1015.13 1015.39 1015.65 1015.92 1016.19 1016.44 1016.66 1016.84 1016.98 1017.09
1014.67 1014.69 1014.82 1015.04 1015.29 1015.56 1015.80 1015.99 1016.13 1016.23 1016.31 1016.39 1016.48 1016.57 1016.67 1016.72 1016.72 1016.61 1016.40 1016.08 1015.66 1015.19 1014.70 1014.24 1013.86 1013.58 1013.42 1013.37 1013.42 1013.56 1013.75 1013.99 1014.25 1014.53 1014.82 1015.11 1015.39 1015.65 1015.89 1016.09 1016.24 1016.36 1016.43
1014.61 1014.59 1014.68 1014.84 1015.06 1015.27 1015.46 1015.61 1015.70 1015.76 1015.81 1015.87 1015.96 1016.09 1016.23 1016.35 1016.43 1016.42 1016.30 1016.05 1015.68 1015.23 1014.74 1014.25 1013.81 1013.46 1013.23 1013.11 1013.11 1013.21 1013.39 1013.63 1013.90 1014.19 1014.48 1014.76 1015.02 1015.26 1015.45 1015.61 1015.72 1015.79 1015.83
1014.66 1014.59 1014.62 1014.73 1014.89 1015.04 1015.17 1015.26 1015.30 1015.31 1015.33 1015.37 1015.45 1015.58 1015.75 1015.92 1016.05 1016.11 1016.06 1015.88 1015.58 1015.18 1014.72 1014.24 1013.81 1013.45 1013.21 1013.08 1013.07 1013.16 1013.34 1013.58 1013.84 1014.12 1014.39 1014.64 1014.86 1015.04 1015.18 1015.27 1015.32 1015.34 1015.33
1014.75 1014.65 1014.63 1014.69 1014.78 1014.87 1014.95 1014.99 1014.99 1014.96 1014.95 1014.96 1015.03 1015.15 1015.31 1015.50 1015.65 1015.74 1015.74 1015.61 1015.37 1015.03 1014.63 1014.21 1013.83 1013.53 1013.33 1013.24 1013.27 1013.39 1013.59 1013.83 1014.09 1014.35 1014.58 1014.78 1014.93 1015.03 1015.09 1015.11 1015.10 1015.06 1015.00
1014.82 1014.70 1014.65 1014.66 1014.71 1014.77 1014.80 1014.81 1014.79 1014.76 1014.72 1014.72 1014.77 1014.88 1015.02 1015.18 1015.33 1015.41 1015.41 1015.31 1015.11 1014.83 1014.51 1014.18 1013.89 1013.68 1013.57 1013.57 1013.67 1013.85 1014.09 1014.35 1014.61 1014.84 1015.03 1015.16 1015.24 1015.27 1015.25 1015.19 1015.11 1015.01 1014.91
1014.82 1014.70 1014.65 1014.64 1014.67 1014.71 1014.74 1014.74 1014.73 1014.70 1014.68 1014.69 1014.73 1014.81 1014.92 1015.05 1015.15 1015.20 1015.18 1015.08 1014.90 1014.66 1014.41 1014.17 1014.00 1013.90 1013.91 1014.03 1014.23 1014.49 1014.79 1015.08 1015.35 1015.56 1015.71 1015.79 1015.80 1015.75 1015.66 1015.54 1015.40 1015.26 1015.12
1014.70 1014.62 1014.58 1014.59 1014.63 1014.68 1014.73 1014.77 1014.79 1014.80 1014.81 1014.84 1014.89 1014.96 1015.04 1015.12 1015.17 1015.17 1015.11 1014.98 1014.80 1014.60 1014.41 1014.26 1014.18 1014.21 1014.35 1014.58 1014.89 1015.24 1015.60 1015.94 1016.23 1016.43 1016.56 1016.60 1016.57 1016.47 1016.33 1016.17 1015.99 1015.82 1015.66
1014.49 1014.46 1014.47 1014.52 1014.60 1014.69 1014.78 1014.86 1014.93 1015.00 1015.06 1015.12 1015.19 1015.27 1015.33 1015.38 1015.38 1015.32 1015.21 1015.05 1014.87 1014.68 1014.53 1014.45 1014.46 1014.60 1014.84 1015.18 1015.58 1016.02 1016.45 1016.84 1017.15 1017.37 1017.50 1017.53 1017.48 1017.37 1017.22 1017.04 1016.86 1016.68 1016.51
1014.24 1014.28 1014.35 1014.46 1014.59 1014.72 1014.86 1015.00 1015.12 1015.24 1015.35 1015.46 1015.57 1015.66 1015.72 1015.75 1015.72 1015.62 1015.48 1015.29 1015.09 1014.91 1014.78 1014.75 1014.83 1015.03 1015.35 1015.77 1016.24 1016.75 1017.23 1017.67 1018.02 1018.27 1018.43 1018.49 1018.46 1018.38 1018.25 1018.09 1017.93 1017.76 1017.61
1013.99 1014.11 1014.25 1014.42 1014.60 1014.78 1014.97 1015.14 1015.31 1015.47 1015.63 1015.78 1015.92 1016.04 1016.12 1016.14 1016.11 1016.00 1015.84 1015.63 1015.43 1015.25 1015.13 1015.12 1015.23 1015.47 1015.83 1016.29 1016.81 1017.35 1017.88 1018.35 1018.75 1019.05 1019.25 1019.37 1019.40 1019.38 1019.30 1019.20 1019.08 1018.95 1018.83
1013.80 1013.98 1014.19 1014.41 1014.64 1014.85 1015.06 1015.26 1015.45 1015.64 1015.82 1016.01 1016.18 1016.33 1016.44 1016.48 1016.46 1016.37 1016.21 1016.01 1015.81 1015.63 1015.53 1015.52 1015.63 1015.88 1016.24 1016.70 1017.23 1017.78 1018.32 1018.83 1019.26 1019.61 1019.88 1020.07 1020.19 1020.25 1020.26 1020.24 1020.19 1020.12 1020.04
1013.66 1013.89 1014.15 1014.41 1014.67 1014.90 1015.12 1015.31 1015.51 1015.70 1015.90 1016.10 1016.30 1016.48 1016.62 1016.71 1016.72 1016.66 1016.53 1016.36 1016.17 1016.00 1015.90 1015.88 1015.98 1016.20 1016.54 1016.97 1017.47 1018.01 1018.55 1019.06 1019.52 1019.93 1020.26 1020.54 1020.75 1020.90 1021.01 1021.08 1021.11 1021.11 1021.08
1013.55 1013.81 1014.10 1014.38 1014.65 1014.89 1015.10 1015.28 1015.46 1015.64 1015.84 1016.05 1016.27 1016.48 1016.66 1016.79 1016.85 1016.84 1016.76 1016.62 1016.46 1016.31 1016.20 1016.17 1016.24 1016.42 1016.71 1017.09 1017.55 1018.04 1018.56 1019.06 1019.54 1019.98 1020.37 1020.71 1021.01 1021.26 1021.46 1021.62 1021.73 1021.80 1021.84
1013.42 1013.69 1013.98 1014.28 1014.54 1014.77 1014.97 1015.14 1015.30 1015.47 1015.66 1015.87 1016.11 1016.35 1016.57 1016.74 1016.86 1016.90 1016.87 1016.77 1016.65 1016.51 1016.41 1016.36 1016.40 1016.54 1016.77 1017.09 1017.48 1017.92 1018.39 1018.87 1019.34 1019.79 1020.22 1020.61 1020.97 1021.30 1021.58 1021.81 1022.00 1022.13 1022.22
1013.22 1013.47 1013.76 1014.04 1014.31 1014.53 1014.72 1014.88 1015.04 1015.20 1015.40 1015.62 1015.87 1016.13 1016.39 1016.60 1016.77 1016.86 1016.87 1016.82 1016.73 1016.62 1016.53 1016.47 1016.49 1016.58 1016.76 1017.02 1017.34 1017.72 1018.13 1018.57 1019.01 1019.45 1019.88 1020.29 1020.68 1021.05 1021.38 1021.67 1021.91 1022.10 1022.24
1012.92 1013.14 1013.40 1013.68 1013.94 1014.17 1014.36 1014.53 1014.70 1014.88 1015.09 1015.33 1015.60 1015.89 1016.17 1016.42 1016.62 1016.74 1016.80 1016.79 1016.73 1016.65 1016.56 1016.51 1016.51 1016.58 1016.71 1016.92 1017.18 1017.50 1017.85 1018.23 1018.62 1019.02 1019.43 1019.83 1020.22 1020.60 1020.95 1021.26 1021.54 1021.76 1021.94
Thickness
5760 5759 5758 5756 5756 5756 5755 5755 5755 5755 5755 5755 5755 5754 5754 5754 5752 5749 5745 5743 5741 5740 5739 5737 5736 5734 5732 5731 5729 5728 5726 5725 5724 5723 5722 5720 5719 5717 5716 5715 5714 5713 5711
5760 5759 5758 5758 5758 5758 5758 5757 5756 5756 5755 5755 5755 5755 5755 5754 5752 5750 5747 5744 5742 5741 5740 5738 5737 5735 5734 5732 5730 5729 5727 5726 5724 5723 5721 5720 5719 5717 5716 5714 5713 5712 5710
5759 5759 5759 5759 5759 5759 5759 5758 5758 5757 5757 5757 5756 5756 5756 5755 5754 5752 5750 5747 5744 5743 5741 5740 5738 5737 5735 5733 5732 5730 5728 5727 5725 5723 5721 5720 5718 5717 5715 5714 5713 5711 5710
5760 5759 5759 5759 5760 5759 5759 5759 5759 5757 5757 5756 5756 5757 5757 5756 5755 5754 5753 5751 5748 5746 5743 5742 5740 5738 5737 5735 5733 5731 5730 5728 5726 5724 5722 5720 5719 5717 5715 5714 5712 5711 5709
5760 5760 5759 5760 5760 5760 5760 5760 5759 5758 5756 5755 5756 5757 5757 5757 5757 5756 5755 5754 5752 5750 5747 5744 5742 5740 5738 5737 5735 5733 5731 5729 5727 5725 5723 5721 5719 5717 5715 5714 5712 5711 5709
5761 5760 5760 5760 5760 5760 5759 5759 5758 5758 5757 5756 5757 5757 5758 5758 5758 5758 5757 5756 5754 5752 5750 5747 5744 5742 5740 5738 5736 5734 5732 5730 5728 5726 5723 5721 5719 5718 5716 5714 5712 5710 5709
5762 5760 5760 5760 5760 5760 5759 5759 5758 5756 5755 5757 5753 5751 5755 5759 5759 5759 5758 5757 5756 5754 5752 5750 5747 5744 5742 5739 5737 5735 5733 5730 5728 5726 5724 5722 5720 5717 5715 5713 5711 5709 5708
5762 5762 5759 5759 5760 5759 5758 5758 5757 5754 5754 5757 5752 5745 5742 5746 5754 5760 5758 5757 5756 5755 5753 5751 5748 5745 5743 5739 5736 5735 5733 5731 5728 5726 5724 5722 5719 5717 5715 5713 5711 5708 5707
5763 5762 5761 5760 5760 5759 5757 5757 5756 5753 5751 5754 5755 5747 5739 5735 5743 5751 5755 5755 5754 5753 5752 5751 5748 5746 5743 5740 5737 5734 5732 5730 5727 5725 5723 5720 5718 5716 5714 5711 5710 5707 5705
5763 5762 5761 5760 5759 5759 5757 5757 5757 5755 5752 5749 5752 5753 5750 5747 5739 5738 5745 5750 5751 5749 5748 5748 5747 5744 5742 5739 5736 5734 5731 5728 5725 5723 5721 5718 5716 5714 5712 5710 5707 5705 5703
5763 5762 5762 5761 5759 5758 5757 5757 5757 5755 5754 5751 5750 5750 5749 5748 5747 5738 5734 5739 5743 5745 5745 5745 5742 5740 5738 5736 5733 5731 5728 5725 5723 5720 5717 5715 5713 5711 5708 5706 5704 5702 5700
5762 5762 5762 5760 5759 5758 5757 5756 5756 5755 5753 5752 5751 5750 5748 5744 5742 5740 5735 5735 5735 5739 5741 5740 5738 5736 5734 5731 5729 5726 5723 5721 5718 5715 5713 5710 5708 5706 5704 5702 5699 5697 5696
5759 5760 5761 5759 5758 5757 5756 5756 5754 5753 5752 5751 5749 5749 5749 5747 5747 5743 5738 5734 5733 5735 5735 5734 5733 5732 5729 5726 5723 5721 5718 5715 5713 5710 5707 5704 5702 5699 5697 5695 5693 5691 5689
5759 5760 5759 5757 5757 5756 5756 5754 5753 5752 5751 5750 5749 5748 5746 5746 5746 5743 5739 5734 5728 5727 5727 5726 5727 5726 5724 5721 5718 5715 5712 5709 5706 5703 5700 5698 5695 5692 5689 5687 5685 5683 5682
5758 5758 5757 5756 5755 5755 5754 5752 5750 5749 5748 5747 5746 5745 5744 5743 5743 5742 5741 5737 5728 5720 5718 5720 5720 5720 5717 5715 5711 5708 5705 5702 5699 5696 5693 5690 5687 5684 5681 5679 5676 5674 5673
5755 5754 5754 5753 5753 5752 5751 5749 5747 5747 5745 5744 5743 5741 5740 5740 5740 5739 5737 5735 5732 5724 5717 5716 5715 5714 5712 5709 5704 5701 5698 5695 5691 5688 5685 5681 5678 5675 5673 5670 5668 5665 5663
5753 5751 5750 5750 5749 5749 5748 5746 5744 5744 5741 5740 5739 5738 5736 5736 5734 5734 5733 5731 5728 5724 5716 5712 5711 5708 5705 5702 5697 5694 5690 5687 5683 5680 5676 5673 5670 5667 5664 5661 5658 5656 5654
5751 5749 5748 5746 5745 5745 5744 5742 5740 5739 5737 5735 5734 5733 5732 5731 5729 5728 5727 5725 5723 5720 5714 5706 5703 5700 5697 5695 5691 5687 5683 5679 5675 5671 5667 5664 5661 5657 5654 5652 5649 5646 5644
5748 5747 5745 5743 5742 5741 5739 5738 5736 5735 5733 5732 5730 5727 5726 5725 5723 5722 5720 5719 5717 5716 5711 5704 5698 5694 5690 5687 5683 5679 5675 5671 5667 5662 5658 5654 5651 5648 5645 5642 5639 5636 5634
5745 5743 5742 5740 5738 5737 5735 5734 5732 5730 5728 5727 5725 5723 5721 5719 5717 5716 5715 5712 5711 5707 5704 5698 5692 5687 5683 5680 5676 5671 5666 5662 5659 5655 5650 5645 5642 5638 5635 5632 5630 5627 5624
5742 5739 5737 5735 5733 5732 5730 5728 5727 5726 5723 5721 5719 5718 5715 5713 5711 5710 5708 5705 5703 5699 5696 5690 5685 5680 5676 5671 5668 5664 5659 5655 5652 5648 5642 5638 5634 5630 5626 5623 5620 5617 5614
5736 5734 5731 5729 5726 5724 5722 5721 5720 5719 5717 5715 5713 5711 5709 5707 5704 5702 5700 5698 5695 5692 5688 5683 5678 5673 5669 5666 5662 5658 5652 5647 5642 5641 5636 5631 5628 5623 5619 5615 5611 5607 5604
5731 5728 5725 5722 5719 5716 5715 5714 5713 5712 5710 5708 5706 5704 5703 5700 5697 5695 5693 5690 5687 5684 5681 5677 5672 5667 5663 5660 5655 5651 5646 5642 5637 5634 5629 5623 5621 5616 5612 5608 5603 5599 5595
5726 5723 5719 5717 5713 5710 5708 5707 5706 5705 5703 5700 5698 5696 5693 5690 5688 5686 5684 5682 5678 5675 5672 5669 5665 5661 5658 5654 5649 5646 5641 5635 5631 5627 5623 5616 5613 5608 5605 5599 5595 5591 5587
5720 5717 5715 5711 5707 5703 5701 5700 5698 5698 5696 5692 5690 5687 5684 5681 5677 5676 5674 5672 5669 5665 5662 5660 5657 5653 5649 5645 5641 5636 5632 5627 5621 5618 5615 5610 5606 5601 5596 5592 5587 5583 5579
5715 5712 5708 5705 5701 5697 5694 5692 5691 5691 5688 5684 5681 5678 5674 5671 5668 5666 5665 5662 5658 5656 5654 5651 5647 5643 5640 5636 5632 5629 5625 5620 5615 5609 5606 5602 5598 5593 5588 5585 5581 5576 5571